Find Micro-LabSat

NORAD ID: 27600 Int'l Des: 2002-056 Owner: NASDA Country: J operational
LEOCIRCULARRETROGRADESSO

リアルタイム位置

3D地球を読み込み中...

Micro-LabSatについて

説明を読み込み中...

次回通過

Passes for default location (London). Set your location on the main map for personalized predictions.

高度履歴

Loading altitude history...

軌道要素

1 27600U 02056D 26119.82723269 .00000149 00000-0 74271-4 0 9995
2 27600 98.8091 85.8614 0011726 90.4796 269.7730 14.30832566219628
Epoch: Apr 29, 2026 • Age: 7 hours

現在のステータス

高度 789.9 km
速度 7.47 km/s
衛星直下点 46.17°N, 9.54°E
打ち上げ日 Dec 14, 2002
運用期間 23.3 years
タイプ other

技術仕様

分類 Payload
質量 54.00 kg
乾燥質量 54.00 kg
総質量 54.00 kg
長さ 0.70 m
直径 0.60 m
スパン 0.60 m
形状 Oct Cyl
製造者 NASDM
フェーズステータス In Orbit
所有者/国 NASDA/J

Most Searched